Race Results for
Texas Chainring Massacre
Valley View, TX
(Event Information)
View By:
Cross Country Marathon on 02/10/2013

Note: Ranking points are NOT upgrade points. An explanation of ranking points can be found here.


Men - Cat 1/2/3

 Place Points NameCity, StateTime USAC #BibTeam
1540.00Bryan Fawley   Denton, TX2:45:16.6 198394  115 
2540.93Adam Koble   Denton, TX2:45:17.0 269412  124 Giant Factory Team SOUTH
3541.86Zachary Carlson   Plano, TX2:45:44.5 277433  174 
4542.79Chris Carlson   Plano, TX2:49:06.0 6135  175 
5543.72Stephen Hardy   Dallas, TX2:51:21.6 145305  118 Dallas Bike Works
6544.65Jordan Chaney   Dallas, TX2:51:34.4 151023  109 RBM/Mirage
7Jason Baker   2:51:37.0  102 Comanche Racing
8546.51Kevin Barton   San Antonio, TX2:51:39.8 204437  103 Joes Pro Bikes
9JP Williams   2:59:05.6  150 Dallas Bike Works
10Michael Bohn   2:59:09.9  105 PACC
11549.30Doug Foxworth   Rio Medina, TX2:59:12.1 12179  116 Bicycle Heaven
12James Slauson   2:59:14.9  142 Bicycle-Heaven
13D Greenwood   2:59:36.9  163 
14552.09Barry Brummund   Southlake, TX3:03:30.1 335200  106 Knobbies & Slicks Bike Shop
15553.02alex morgan   Amarillo3:03:33.8 25033  128 Sun Adventure Sports
16553.95Terry Parrish   Fort Worth, TX3:03:52.9 260284  131 Colavita Racing Inc.
17554.88Justin Berndt   Roanoke, TX3:07:48.0 209652  104 Mafia Racing South
18555.81Kevin Schoenberger   Bountiful, UT3:13:02.7 77794  138 
19556.74Charlie Waskey   Carrollton Tx3:13:05.1 37320  147 Velosport
20Matt Kocian   3:14:26.2  125 
21558.60Christopher Schaefer   Dallas, TX3:14:26.7 310215  137 Dallas Bike Works
22559.53Jon Cotton   The Colony, TX3:15:13.5 265213  110 Tortoise Racing
23Mark moser   3:15:26.5  129 
24561.39adam frelin   Fort Worth, TX3:15:37.3 387301  117 
25K Chellete   3:16:36.8  170 
26563.25Cole Weldon   Austin, TX3:18:40.2 414598  148 Ozone Bikes
27K Witherstine   3:21:29.7  165 
28chris anderson   3:25:57.3  101 Sun Adventure
29566.04Joel Shewry   Arlington, TX3:34:12.6 201589  140 TBI/DRT
30Shannon Wyatt   3:41:06.6  152 Bonzai Cycle Werx
31567.90dana burch   Frisco, TX3:42:19.0 384766  107 Big Pig Racing
32568.83Timothy Trout   Dallas, TX3:42:24.4 35969  144 Matrix/RBM
33569.76Bill Slagel   Dallas, TX3:42:28.1 367208  141 Matrix Cycling Club
34Hudson Doerge   3:42:28.9  111 
35571.62Billy Wadle   Hurst, TX3:49:26.5 121350  145 Bicycles Inc
36J Gerax   3:51:07.5  176 
37Kevin Doggett   3:51:09.9  112 
38574.41Paul Carroll   Fort Worth, TX3:51:28.7 340480  108 LiftMaster - Tuneros Racing
39575.34Joe Praeger   Amarillo, TX3:54:43.9 316394  133 Sun Adventure Sports
40576.27Josh Lederman   Bettendorf, IA3:56:23.2 266786  127 Friends of Off-Road Cycling (FORC)
41577.20Thaddeus Hasse   Dallas, TX3:56:52.6 277243  119 
42Richard Presser   4:01:54.3  134 
43579.06Oscar Ostos   El Paso, TX4:01:55.2 393943  130 
44Kurt Lauerman   4:11:48.8  126 
45Hugh Walker   4:11:50.4  146 CCRCC
46581.85Yuri Cook   Allen, TX4:12:00.0 360713  172 Raintree Healthcare
47Charlie Howell   4:15:16.9  120 
48583.71Darren Peoples   Salt Lake City, UT4:15:56.2 27676  132 
49584.64Robert Tracy   Yardley, PA4:17:30.6 144780  143 
50D Jacobson   4:17:31.0  173 
51Melvyn Matco   4:23:11.0  168 
52John Johnson   4:28:21.5  122 New Leaf Adventures
53588.36Peter Rajcani   Dallas, TX4:30:47.1 206042  135 
54589.29Jon Kieffer   Dallas, TX4:44:12.1 331348  123 Mirage
55Daniel Rawls   4:51:33.9  136 DFW Hounds Adventure Racing
DNSBrian Eddy   DNS  114 Zombie Outbreak
DNSchris Jennings   DNS  121 Texoma Bicycle Works
DNSBen Sewell   Dallas, TXDNS 177629  139 King Racing
DNSMark Wieneke   Arnaudville, LADNS 38158  149 Acadiana Bicycle Company Racing
DNSSteven Williams   Dallas, TXDNS 140978  151 GS Tenzing
DNFRyan Dromgoole   Denton, TXDNF 275193  113 PACC/WATT POSSE

Men - Cat 1/2/3 - Singlespeed

 Place Points NameCity, StateTime USAC #BibTeam
1540.00Troy Dunton   Houston Tx2:51:23.2 155928  156 GS Tenzing
2550.00Jose Martinez   Houston, TX3:12:25.1 342642  158 Sugar Cycles Factory Team
3560.00Kyle Davenport   Missouri City, TX3:24:48.9 239805  155 Sugar Cycles Factory Team
4P Petrie   3:25:49.4  169 
5Andre Choiniere   3:39:50.3  154 
6 Lyle   4:44:12.9  166 
DNSPhil Barnidge   Youngsville, LADNS 197192  153 Team JAMBA
DNSMichael Favaloro   DNS  157 JAMBA
DNSGrant Mills   Mc Kinney, TXDNS 330116  159 Cadence Cyclery
DNSray porter   DNS  160 oak cliff bicycle company

Women - Cat 1/2/3

 Place Points NameCity, StateTime USAC #BibTeam
1540.00Linda Margraf   Southlake, TX3:34:03.4 22496  162 Colavita/Baci/ Texas
2565.00Tara Malone   Dallas, TX4:40:14.9 367496  164 
3590.00Terri Griffin   Dallas, TX4:43:39.6 308205  167 
DNSCharity Goswick   Dallas, TXDNS 320516  161 Big Pig Racing

Report missing or incorrect license numbers

Volkswagen
Bonk BreakerShimanoSpySierra NevadaUSACDF
UCI USA Cycling is the official governing body for all disciplines of competitive cycling in the United States. The 501c3, membership-based organization aims both to achieve sustained success in international cycling competition and to grow competitive cycling in America while delivering an exceptional customer experience.
View Children's Online Privacy Protection Policy
US Olympic Committee